Regional Weather Roundup
Issued by NWS

Home | Current Version | Previous Version | Text Only | Print | Product List | Glossary On
Versions: 1 2 3 4 5 6 7 8 9 10 11 12 13 14 15 16 17 18 19 20 21 22 23 24 25 26 27 28 29 30 31 32 33 34 35 36 37 38 39 40 41 42 43 44 45 46 47 48 49 50
000
ASHW40 PHFO 280043
RWRHI

WEATHER ROUNDUP FOR HAWAII
NATIONAL WEATHER SERVICE HONOLULU HI
200 PM HST FRI MAR 27 2015

THIS IS AN AUTOMATED REPORT THAT HAS NOT BEEN QUALITY CONTROLLED.

NOTE..."FAIR" INDICATES FEW OR NO CLOUDS BELOW 12,000 FEET WITH NO
SIGNIFICANT WEATHER AND/OR OBSTRUCTIONS TO VISIBILITY.

* - THESE SITES REPORT LIMITED FIELDS

HIZ001>004-280100-
KAUAI-NIIHAU-

CITY           SKY/WX    TMP DP  RH WIND       PRES   REMARKS
LIHUE APT      PTSUNNY   80  64  58 NE12      30.17F
PORT ALLEN*      N/A     82 N/A N/A E18G24      N/A
POIPU*           N/A     81 N/A N/A NE9G20      N/A
PRINCEVILLE*     N/A     75 N/A N/A MISG        N/A
KOKOLE POINT*  NOT AVBL
MOLOAA DAIRY*  NOT AVBL
WAIMEA HTS*      N/A     90  59  35 W9G18       N/A
PUU OPAE*        N/A     72  61  68 CALM        N/A
PUU LUA*       NOT AVBL
MAKAHA RIDGE*  NOT AVBL
$$

HIZ005>011-280100-
OAHU-

CITY           SKY/WX    TMP DP  RH WIND       PRES   REMARKS
HONOLULU       MOSUNNY   82  59  45 E13G21    30.11F
KALAELOA       SUNNY     83  59  44 E9G16     30.12F
KANEOHE MCB    MOSUNNY   79  61  53 NE13G20   30.12F
WHEELER FIELD  FAIR      78  59  52 E14       30.13F
BELLOWS*         N/A    N/A N/A N/A NE16        N/A
KAHUKU*          N/A    N/A N/A N/A E9G17       N/A
WHEELER*       NOT AVBL
WAIANAE HARBOR NOT AVBL
DILLINGHAM*      N/A     86  63  45 MISG        N/A
KAHUKU TRN*      N/A     68  52  56 E12G23      N/A
KAWAILOA*        N/A     73  59  60 E13G24      N/A
KII*             N/A     77  63  61 E18         N/A
MAKUA RANGE*     N/A     81  64  57 W7          N/A
OAHU FOREST NW   N/A    N/A N/A N/A CALM        N/A
SCHOFIELD BRK*   N/A     63  45  51 MISG        N/A
SCHOFIELD S*   NOT AVBL
WAIANAE VLY*     N/A     84  61  45 VRB8G18     N/A
KUAOKALA*        N/A     73  59  60 CALM        N/A
HONOULIUULI*   NOT AVBL
MOKUOLOE IS*   NOT AVBL
PALEHUA*         N/A     91  55  29 CALM        N/A
WAIAWA PHB*    NOT AVBL
$$

HIZ012>013-280100-
MOLOKAI-

CITY           SKY/WX    TMP DP  RH WIND       PRES   REMARKS
MOLOKAI AIRPT  SUNNY     79  64  60 NE17G24   30.12F
KALAUPAPA      NOT AVBL
MAKAPULAPAI*     N/A     79  66  65 E18G26      N/A
MOLOKAI 1*       N/A     72  57  60 SE7G21      N/A
PUU ALII*        N/A     64  57  79 CALM        N/A
$$

HIZ016-280100-
KAHOOLAWE-

CITY           SKY/WX    TMP DP  RH WIND       PRES   REMARKS
KAHOOLAWE*       N/A     73 N/A N/A E21G33      N/A
HAKIOAWA*        N/A     78  64  61 MISG      30.52F
HONOKANAIA*      N/A     85  63  47 NE16G33   30.11F
KANELOA*         N/A     77  64  65 MISG      29.34F
KEALIALALO*      N/A     79  61  53 E18G37      N/A
LUA MAKIKA*    NOT AVBL
$$

HIZ014>015-280100-
LANAI-

CITY           SKY/WX    TMP DP  RH WIND       PRES   REMARKS
LANAI CITY       N/A    N/A N/A N/A MISG        N/A
LANAI 1*         N/A     64  57  77 NE18G35     N/A
$$

HIZ017>028-280100-
MAUI-

CITY           SKY/WX    TMP DP  RH WIND       PRES   REMARKS
KAHULUI        MOSUNNY   82  65  56 NE22G31   30.10F
KAPALUA-W MAUI MOSUNNY   81  64  57 NE21G28   30.12
HANA AIRPORT   CLOUDY    77  66  69 E14       30.15F
HANA*            N/A     77 N/A N/A E10G17      N/A
HALEAKALA SUMM   N/A     54   7  15 E15         N/A
MAALAEA BAY*   NOT AVBL
HALEAKALA*     NOT AVBL
KAUPO GAP*       N/A     73  52  46 SE8G18      N/A
KULA 1*          N/A     63  55  74 NW6         N/A
$$

HIZ023>026-280100-
BIG ISLAND OF HAWAII COAST AND LOWER SLOPES-

CITY           SKY/WX    TMP DP  RH WIND       PRES   REMARKS
KAILUA KONA    MOSUNNY   83  67  58 SW9       30.06F
HILO           MOSUNNY   80  67  64 E15G22    30.13F
HONOKAA*       NOT AVBL
KAWAIHAE MWT*    N/A     82 N/A N/A W10         N/A
KAWAIHAE*        N/A     79 N/A N/A SW14        N/A
SOUTH POINT*     N/A     77 N/A N/A NE22G32     N/A
UPOLU AIRPORT*   N/A    N/A N/A N/A NE21G28     N/A
KAMUELA*       PTCLDY    73  63  68 NE16      30.17F
HAKALAU*         N/A     62  51  68 SE7G15      N/A
KALOKO-HONOKO*   N/A     84  66  54 SW8       30.05F
PALI 2*          N/A     77  55  47 NE14G24     N/A
KEALAKOMO*       N/A     82  66  57 E22G31      N/A
KAUPULEHU*       N/A     77  59  53 NW9G15      N/A
KAPAPALA*        N/A     77  65  65 E10G24      N/A
LOWER KAHUKU*    N/A     70  59  68 NE3G17      N/A
PUHE CS*         N/A     84  66  54 W6G16       N/A
PUHO CS*         N/A     84  64  50 W5G10       N/A
PTA KEAMUKU*     N/A     72  57  60 CALM        N/A
WAIKOLOA*        N/A     82  57  42 NE16G26     N/A
$$

HIZ027>028-280100-
BIG ISLAND OF HAWAII INTERIOR AND SUMMMITS-

CITY           SKY/WX    TMP DP  RH WIND       PRES   REMARKS
BRADSHAW FIELD MOSUNNY   71  36  27 SE10G17   30.37F
MK VISITOR CEN NOT AVBL
MAUNA KEA*       N/A     45  -6  12 SE16        N/A
MAUNA LOA*       N/A     57   7  13 MISG        N/A
MAUNA LOA 1*   NOT AVBL
PTA KIPUKA*      N/A     66  54  63 NW8G18      N/A
PTA RANGE 17*    N/A     68  55  64 W10G18      N/A
PTA WEST*        N/A     70  57  64 NW12G18     N/A
NENE CABIN*      N/A     55  43  62 E8G16       N/A
AHUMOA*          N/A     62  56  81 N7G14       N/A
PTA PORTABLE*  NOT AVBL
PUU MALI*      NOT AVBL
$$

HIC003-280100-
NORTHWEST ISLANDS-

CITY           SKY/WX    TMP DP  RH WIND       PRES   REMARKS
MIDWAY ISLAND  CLOUDY    66  66 100 VRB6      30.11F
MIDWAY NOS*    NOT AVBL
FRENCH FRIGATE NOT AVBL
$$

PHZ110>124-180-280100-
BUOY REPORTS

STATION/POSITION TIME  TEMP    WIND        PRES    WAVE   SWELL
                       AIR SEA DIR/SP/G            HT/PER HT/DIR
                 (UTC) (F)     (DEG/KT/KT) (MB)    (FT/S) (FT/D)
BUOY 51001       NOT AVBL
BUOY 51101       0000   72 73  130/ 10/ 12 1021.2F   5/ 9   5/360
BUOY 51100       0000   72     110/ 12     1022.3F
BUOY 51003       0000   77 78  120/ 14/ 16 1018.9F   8/ 8   7
BUOY 51004       NOT AVBL
BARBERS PT BUOY  NOT AVBL
WAIMEA BAY BUOY  0000      76                N/A     5/11
KAILUA BAY BUOY  0000      76                N/A     8/ 8   2/360
LANAI BUOY       0000      78                N/A     2/13   2/190
BARBERS PT 2     0000      77                N/A     4/13   2/200
PAUWELA MAUI     0000      76                N/A     8/11
HILO             0000      78                N/A     8/ 7   3/350
KANEOHE BAY BUOY 0000      76                N/A     6/11   2/350
HANALEI KAUAI    0000      75                N/A     8/11   3/340
KAHULUI HARBOR   0000   76 77   50/ 21/ 25 1018.9F
HONOLULU HARBOR  0000   80 76  110/  5/  9 1019.7F
KILO NALU        NOT AVBL
HILO HARBOR      0000   79 77   50/ 10/ 17 1019.6F
MOKUOLOE         0000   78 76   90/ 10/ 15 1021.1F
NAWILIWILI       0000   76 76   30/ 10/ 13 1020.7F
WHOTS BUOY       NOT AVBL
BUOY 51028       NOT AVBL
$$

......................KEY........................................
  SKY/WX - SKY CONDITIONS/PRESENT WEATHER
  TMP    - TEMPERATURE IN FAHRENHEIT
  DWPT   - DEWPOINT IN FAHRENHEIT
  RH     - RELATIVE HUMIDITY IN PERCENT
  WIND   - DIRECTION AND SPEED /MPH FOR ISLANDS...KTS FOR BUOYS/
  PRES   - MEAN SEA LEVEL PRESSURE IN INCHES OF HG
  VSB    - VISIBILITY IN MILES
  HX     - HEAT INDEX
  WCI    - WIND CHILL INDEX
  VRB    - VARIABLE WIND DIRECTION
  N/A    - NOT AVAILABLE


USA.gov is the U.S. government's official web portal to all federal, state and local government web resources and services.